Location: Unspecified
(0.0000°N, 0.0000°E)
Time: 16:32:38
(UTC+00:00)

Hubble Space Telescope - Pass Details

Date: 17 September 2020
Orbit: 536 x 540 km, 28.5° (Epoch: 18 September)

Event Time Altitude Azimuth Distance (km) Brightness Sun altitude
Exits shadow 04:22:20 37° 176° (S) 839 1.7 -23.0°
Maximum altitude 04:23:01 40° 150° (SSE) 792 1.7 -22.8°
Drops below altitude 10° 04:26:53 10° 80° (E) 1,774 4.5 -21.9°
Sets 04:29:13 0° 72° (ENE) 2,662 5.7 -21.3°
